Location: Usti nad Labem
(50.6670°N, 14.0330°E)
Time: 23:47:17
(UTC+01:00)

ISS - Pass Details

Date: 02 October 2020
Orbit: 417 x 420 km, 51.6° (Epoch: 30 October)

Event Time Altitude Azimuth Distance (km) Brightness Sun altitude
Rises 20:18:27 0° 286° (WNW) 2,371 1.9 -16.5°
Reaches altitude 10° 20:20:37 10° 278° (W) 1,504 0.4 -16.8°
Maximum altitude 20:23:47 39° 209° (SSW) 646 -2.8 -17.3°
Enters shadow 20:24:47 30° 167° (SSE) 773 -2.7 -17.5°
